Probability
68 97 100 100 100 100 100 100 100 100 100 100 100 100 100 100 100 100 100 100 100 100 97 97 90 97 100 94 94 87 87 97 97 94 87 90 90 90 90 90 84 77 81
81 97 100 100 100 100 100 100 100 100 100 100 100 100 100 100 100 97 100 100 100 97 97 97 94 100 97 90 87 87 87 94 90 90 94 94 94 84 87 90 84 74 87
87 94 100 100 100 100 100 100 100 100 100 100 100 100 100 100 100 97 100 100 97 97 94 94 90 90 90 90 90 90 84 94 87 87 81 48 84 90 94 94 87 87 87
84 90 94 100 100 100 100 100 100 100 100 100 100 100 100 100 100 97 97 97 97 97 97 94 90 84 87 87 94 94 87 87 84 68 10 29 58 90 90 94 90 90 81
77 84 97 100 100 100 100 100 100 100 100 100 100 100 100 100 97 100 100 100 97 97 97 97 97 94 90 87 87 87 87 87 81 35 6 23 55 97 94 84 87 84 81
77 94 100 100 100 100 100 100 100 100 100 100 97 100 100 100 100 100 100 97 97 97 97 100 87 87 87 77 77 77 77 74 52 3 13 42 68 94 84 90 87 81 81
87 97 100 100 100 100 100 100 100 100 100 97 97 97 100 100 100 100 100 97 97 97 97 90 84 81 81 74 74 74 84 74 3 0 10 42 77 94 87 90 84 81 81
90 97 100 100 100 100 100 100 100 100 97 97 97 97 100 100 100 100 100 97 97 97 97 94 87 81 74 71 77 77 81 68 32 10 10 45 90 90 84 84 84 81 81
94 97 100 100 100 100 100 100 100 100 97 97 97 97 100 100 100 100 100 100 97 97 94 87 74 61 65 68 71 74 84 71 3 10 32 61 87 90 84 77 77 81 84
94 97 97 100 100 100 100 100 100 100 97 97 97 97 97 100 100 100 100 97 94 94 87 77 71 65 61 48 71 81 84 42 0 6 19 61 87 87 81 77 74 77 77
90 94 97 97 100 100 100 100 100 100 97 97 97 97 94 90 90 97 97 97 94 94 90 77 77 74 65 52 65 77 39 0 3 6 23 77 90 84 87 81 77 77 81
87 94 94 90 94 97 100 100 94 94 90 84 84 81 58 52 58 77 97 97 94 94 94 90 87 77 48 10 19 29 0 0 3 10 39 81 90 84 84 81 81 74 77
81 87 84 84 81 87 81 87 84 81 81 77 77 65 52 45 42 58 65 84 84 68 48 52 61 35 16 10 0 0 0 3 3 16 52 87 87 87 84 81 84 77 77
71 81 84 77 71 68 81 77 77 71 71 74 77 68 45 45 32 23 26 39 32 23 16 13 13 13 6 3 3 3 3 3 6 10 45 87 87 87 81 87 81 81 74
61 68 61 68 65 58 65 74 81 74 68 61 61 61 48 23 19 23 19 23 23 13 10 10 6 6 3 0 0 3 0 3 6 10 35 71 84 87 84 71 74 81 77
65 61 71 58 55 45 55 48 81 74 58 55 65 65 52 26 23 16 19 19 19 13 16 10 10 6 3 3 0 3 0 0 3 10 19 55 84 84 81 81 77 68 68
68 71 74 65 68 65 65 61 71 68 71 68 68 58 42 29 26 23 26 13 10 6 10 10 6 3 10 3 3 0 0 0 0 6 13 16 45 81 84 84 84 74 68
71 74 71 84 77 71 68 65 77 71 68 68 61 55 45 35 23 23 23 13 10 13 13 13 13 13 13 3 3 0 3 0 0 0 3 10 10 29 74 90 90 87 74
68 71 77 74 74 68 65 68 71 61 52 55 52 55 55 52 39 26 23 19 16 19 16 19 13 13 13 3 3 0 3 3 0 0 0 3 6 6 10 55 97 90 77
68 71 71 74 71 71 68 65 58 52 45 52 52 52 48 45 48 32 29 23 16 16 13 10 6 10 3 6 10 6 3 0 0 0 0 0 0 0 0 13 35 71 87
65 68 71 74 71 71 71 68 52 55 48 48 48 52 52 48 45 29 39 26 16 16 13 10 3 3 3 0 3 3 3 0 0 0 0 0 0 0 0 0 6 10 26
68 68 68 74 71 71 65 58 52 45 42 42 35 52 45 48 48 39 29 23 13 6 6 3 3 3 0 3 0 0 3 0 0 0 0 0 0 0 0 0 0 3 3
71 68 68 68 68 65 55 52 52 48 35 32 29 35 45 48 48 32 19 19 10 10 10 6 6 0 3 3 0 0 0 0 0 0 0 0 0 0 0 0 0 0 0
65 65 58 58 61 61 58 52 52 48 45 32 26 29 35 39 45 26 13 16 13 13 13 6 6 3 3 0 3 3 0 0 0 0 0 0 0 0 0 0 3 0 0
65 58 58 58 58 55 55 48 48 48 39 29 23 23 32 35 35 32 19 16 13 13 13 6 6 3 3 3 3 3 3 0 0 0 0 0 0 0 0 0 0 0 0
65 58 55 61 58 58 55 48 45 45 35 29 23 23 23 29 29 23 26 19 13 13 13 6 6 6 3 3 3 3 3 0 0 0 0 0 0 0 0 0 0 0 0
Height
5895 5895 5895 5895 5896 5896 5897 5897 5898 5898 5898 5899 5899 5899 5898 5898 5897 5897 5897 5896 5896 5895 5895 5895 5894 5894 5894 5894 5893 5893 5893 5892 5892 5892 5892 5891 5891 5891 5891 5891 5891 5891 5891
5896 5896 5896 5897 5897 5898 5898 5898 5899 5899 5900 5900 5900 5900 5900 5899 5899 5898 5898 5898 5897 5897 5896 5896 5896 5895 5895 5895 5895 5894 5894 5894 5893 5893 5893 5893 5893 5893 5893 5892 5892 5892 5892
5897 5897 5897 5898 5898 5899 5899 5900 5900 5901 5901 5901 5901 5901 5901 5900 5900 5900 5899 5899 5898 5898 5897 5897 5897 5897 5896 5896 5896 5895 5895 5895 5895 5894 5894 5894 5894 5894 5894 5893 5893 5893 5893
5898 5898 5899 5899 5899 5900 5900 5901 5901 5902 5902 5902 5902 5902 5902 5901 5901 5901 5900 5900 5899 5899 5898 5898 5898 5898 5897 5897 5897 5896 5896 5896 5896 5895 5895 5895 5895 5895 5895 5894 5894 5894 5894
5899 5899 5899 5900 5900 5900 5901 5901 5902 5902 5903 5903 5903 5903 5903 5903 5902 5902 5901 5901 5900 5900 5899 5899 5899 5899 5898 5898 5898 5897 5897 5897 5896 5896 5896 5896 5896 5896 5896 5895 5895 5895 5895
5899 5900 5900 5900 5900 5901 5901 5902 5903 5903 5904 5904 5904 5904 5904 5904 5903 5903 5902 5902 5901 5901 5900 5900 5900 5900 5899 5899 5899 5898 5898 5897 5897 5897 5897 5897 5897 5897 5896 5896 5896 5896 5896
5900 5900 5900 5901 5901 5901 5902 5903 5903 5904 5904 5905 5905 5905 5905 5904 5904 5904 5903 5903 5902 5902 5901 5901 5901 5901 5900 5900 5899 5899 5899 5898 5898 5897 5897 5897 5897 5897 5897 5897 5897 5896 5896
5900 5900 5901 5901 5901 5902 5902 5903 5904 5904 5905 5905 5906 5906 5905 5905 5905 5904 5904 5903 5903 5902 5902 5902 5901 5901 5901 5900 5900 5900 5899 5899 5898 5898 5898 5898 5898 5898 5898 5897 5897 5897 5897
5900 5900 5901 5901 5901 5902 5902 5903 5904 5905 5905 5906 5906 5906 5906 5906 5905 5905 5905 5904 5904 5903 5903 5902 5902 5902 5901 5901 5901 5900 5900 5899 5899 5899 5899 5898 5898 5898 5898 5898 5897 5897 5897
5900 5901 5901 5901 5902 5902 5903 5903 5904 5905 5905 5906 5906 5906 5906 5906 5906 5905 5905 5905 5904 5904 5903 5903 5903 5902 5902 5901 5901 5901 5900 5900 5899 5899 5899 5899 5899 5899 5898 5898 5898 5898 5898
5901 5901 5901 5901 5901 5902 5902 5903 5904 5905 5905 5906 5906 5907 5907 5906 5906 5906 5906 5905 5905 5904 5904 5903 5903 5903 5902 5902 5901 5901 5901 5900 5900 5900 5900 5899 5899 5899 5899 5899 5898 5898 5898
5901 5900 5900 5901 5901 5901 5902 5903 5903 5904 5905 5906 5906 5907 5907 5906 5906 5906 5906 5906 5905 5905 5904 5904 5903 5903 5903 5902 5902 5901 5901 5901 5900 5900 5900 5900 5899 5899 5899 5899 5899 5898 5898
5900 5900 5900 5900 5900 5900 5901 5902 5903 5904 5904 5905 5906 5906 5906 5906 5906 5906 5906 5906 5906 5905 5905 5904 5904 5904 5903 5903 5902 5902 5901 5901 5900 5900 5900 5900 5900 5900 5900 5900 5899 5899 5899
5899 5899 5899 5899 5899 5899 5900 5901 5902 5903 5904 5904 5905 5906 5906 5906 5906 5906 5906 5906 5906 5905 5905 5905 5904 5904 5904 5903 5903 5902 5902 5901 5901 5901 5901 5901 5900 5900 5900 5900 5900 5899 5899
5900 5899 5898 5898 5898 5898 5899 5900 5900 5902 5903 5904 5904 5905 5906 5906 5905 5906 5906 5906 5906 5906 5905 5905 5904 5904 5904 5904 5903 5903 5902 5902 5901 5901 5901 5901 5901 5900 5900 5900 5900 5900 5900
5899 5899 5899 5898 5897 5898 5898 5899 5899 5901 5902 5903 5904 5904 5904 5904 5905 5905 5905 5906 5906 5905 5905 5905 5904 5904 5904 5904 5904 5903 5903 5902 5902 5902 5901 5901 5901 5901 5901 5900 5900 5900 5900
5898 5898 5897 5897 5896 5897 5897 5898 5898 5899 5900 5901 5902 5903 5903 5904 5904 5904 5905 5905 5905 5905 5905 5904 5904 5904 5904 5904 5903 5903 5903 5903 5902 5902 5902 5902 5901 5901 5901 5901 5900 5900 5900
5895 5895 5895 5895 5895 5895 5896 5896 5897 5898 5899 5900 5900 5901 5902 5902 5903 5903 5904 5904 5904 5904 5904 5904 5904 5904 5903 5903 5903 5903 5903 5903 5902 5902 5902 5902 5901 5901 5901 5901 5900 5900 5900
5893 5893 5893 5892 5893 5893 5893 5894 5895 5896 5897 5898 5898 5899 5900 5900 5901 5901 5902 5902 5902 5903 5903 5903 5903 5903 5903 5903 5903 5903 5903 5903 5902 5902 5902 5902 5901 5901 5901 5901 5900 5900 5900
5890 5890 5890 5890 5891 5891 5891 5892 5893 5894 5895 5895 5896 5897 5898 5898 5898 5899 5900 5900 5901 5901 5902 5902 5902 5902 5902 5902 5902 5902 5902 5902 5902 5902 5902 5901 5901 5901 5901 5900 5900 5900 5899
5888 5889 5888 5887 5888 5889 5889 5889 5890 5892 5893 5893 5894 5894 5895 5895 5896 5897 5898 5898 5899 5900 5900 5901 5901 5901 5901 5901 5901 5901 5902 5902 5902 5901 5901 5901 5901 5900 5900 5900 5899 5899 5898
5885 5885 5886 5886 5886 5887 5887 5887 5888 5889 5890 5891 5891 5892 5892 5893 5893 5893 5895 5896 5897 5897 5898 5899 5899 5899 5900 5900 5900 5900 5901 5901 5901 5901 5900 5900 5900 5900 5899 5899 5899 5898 5898
5884 5884 5884 5884 5884 5884 5885 5885 5886 5887 5888 5888 5889 5889 5890 5890 5890 5891 5892 5893 5894 5895 5895 5896 5896 5897 5897 5898 5898 5899 5899 5899 5899 5900 5899 5899 5899 5898 5898 5898 5897 5897 5896
5882 5882 5882 5881 5882 5882 5883 5883 5884 5884 5885 5886 5886 5887 5887 5887 5888 5888 5890 5890 5891 5891 5892 5893 5894 5894 5895 5896 5896 5896 5897 5897 5897 5898 5898 5897 5897 5897 5896 5896 5896 5895 5894
5879 5879 5879 5879 5879 5880 5880 5881 5881 5882 5882 5883 5883 5883 5883 5884 5884 5885 5886 5887 5887 5888 5889 5890 5890 5891 5892 5893 5893 5894 5894 5894 5895 5895 5895 5895 5895 5895 5894 5894 5893 5892 5892
5877 5875 5876 5876 5876 5877 5877 5877 5878 5878 5879 5879 5880 5880 5880 5880 5881 5881 5882 5883 5884 5884 5885 5886 5887 5888 5889 5889 5890 5890 5891 5891 5891 5892 5892 5892 5892 5892 5891 5891 5890 5889 5889
Wind_Speed
7 7 7 7 6 5 4 4 4 3 3 3 3 3 4 4 5 5 5 6 6 7 7 7 7 7 7 7 7 7 7 7 7 7 7 7 6 6 7 7 6 7 7
6 6 6 5 5 5 4 4 3 3 3 3 3 3 3 4 4 4 5 5 5 6 6 6 6 6 7 7 7 7 7 7 7 7 6 6 6 6 6 6 6 6 6
5 5 4 4 4 4 4 3 3 2 2 3 3 3 3 4 4 4 4 4 4 5 5 5 6 6 6 6 6 6 6 6 6 6 6 6 5 5 6 6 6 6 6
4 4 3 3 3 3 3 2 2 2 2 2 2 3 3 3 3 4 4 4 4 4 4 4 5 5 6 6 6 6 6 6 6 5 5 5 5 5 5 5 5 5 5
3 3 3 2 2 2 2 2 2 2 2 2 2 3 3 3 3 3 3 3 3 3 3 3 4 5 5 5 5 5 5 5 5 5 5 5 5 4 4 4 4 4 5
4 3 3 2 2 2 2 2 1 1 1 2 2 3 3 2 2 2 3 3 3 2 3 3 3 4 4 4 4 4 4 4 4 4 4 4 4 4 4 4 4 4 5
4 4 3 2 2 1 1 1 1 1 1 1 2 3 3 3 2 3 3 3 2 2 2 2 3 3 3 3 3 3 4 4 4 4 3 3 3 3 4 4 4 4 4
4 3 2 2 1 1 1 1 1 0 0 1 2 3 3 3 2 2 3 2 3 3 3 2 3 3 3 3 3 3 3 3 3 3 3 3 3 3 3 4 4 4 3
4 3 2 1 1 1 1 1 1 1 1 1 2 2 3 3 3 2 2 2 2 3 3 3 3 3 3 2 2 2 3 3 3 3 3 3 3 3 3 3 4 4 4
4 3 2 1 1 1 1 1 1 1 0 1 2 2 3 3 3 2 2 2 3 3 3 3 3 3 3 2 2 2 2 3 3 3 3 3 3 3 3 4 4 4 4
4 3 2 1 1 0 1 1 1 1 1 1 1 2 2 3 3 2 2 2 2 3 3 3 4 3 3 3 3 3 3 2 3 3 3 3 3 2 3 3 4 4 4
3 3 2 1 1 1 1 2 2 2 1 1 1 1 2 2 2 2 2 2 2 3 3 3 3 3 3 3 3 3 2 2 2 3 3 2 2 2 3 4 4 4 4
3 2 2 2 1 2 2 2 3 3 2 2 1 1 1 1 2 1 1 2 2 2 2 3 3 3 3 2 2 2 2 2 2 2 2 2 2 3 3 4 4 5 4
3 3 3 2 1 2 3 3 4 4 3 2 2 1 1 2 2 1 1 2 2 2 2 3 2 2 2 2 2 2 2 2 2 2 2 2 3 3 3 3 4 4 4
4 3 4 3 2 2 3 3 4 5 4 3 2 2 2 2 1 1 1 1 2 2 2 2 2 1 1 1 2 2 2 2 2 2 2 2 2 3 3 3 3 3 4
3 3 4 3 3 3 4 4 5 6 5 4 3 3 2 2 2 2 1 1 2 2 2 2 2 2 2 1 1 1 2 2 1 2 2 2 2 2 2 2 2 3 3
5 4 4 4 4 4 5 5 6 6 6 6 5 4 3 3 3 3 2 2 2 2 2 2 2 3 2 2 1 0 0 1 1 1 1 2 2 2 2 2 2 3 3
7 6 5 4 4 5 6 7 7 7 8 8 7 6 5 5 5 5 4 3 3 3 2 2 2 3 2 1 1 1 1 0 1 0 0 1 2 2 2 2 2 2 3
8 7 6 6 6 6 6 7 8 9 9 9 8 8 8 7 7 7 6 5 4 3 3 3 3 3 2 2 2 2 2 2 2 1 1 1 2 2 2 2 2 2 3
9 8 7 6 6 6 6 6 8 9 10 9 9 9 9 9 9 8 7 6 6 5 4 4 4 4 3 3 3 3 3 4 3 3 3 3 3 3 3 3 3 3 3
9 9 8 7 7 7 6 6 8 9 9 9 9 9 9 9 9 10 10 9 8 7 7 6 6 5 5 4 5 5 5 5 5 4 4 3 3 3 3 3 4 4 4
9 8 8 8 7 7 6 6 8 9 10 9 9 10 11 10 11 11 10 11 10 10 9 9 8 7 7 6 6 6 6 6 6 6 5 5 5 5 5 5 5 5 5
7 6 7 7 7 6 6 6 8 9 9 10 10 11 11 12 11 11 12 12 12 11 11 10 10 9 8 8 7 8 8 8 8 8 7 7 7 7 7 6 7 7 7
7 7 7 7 8 7 7 7 8 9 9 9 10 11 12 12 12 12 13 13 14 13 13 12 12 12 10 10 10 9 9 10 10 9 9 9 9 8 9 9 9 9 9
8 7 8 9 8 8 8 8 8 10 10 11 11 11 11 11 12 13 14 14 14 14 14 14 14 13 12 12 12 12 12 12 12 11 11 11 11 10 11 11 11 11 11
8 8 8 9 8 8 8 8 8 9 10 10 11 12 13 12 12 13 14 14 14 15 15 14 14 14 14 14 14 14 13 13 13 13 13 14 14 13 13 13 13 13 14
Wind_Direction
96 98 103 104 100 102 103 92 79 67 62 61 66 68 68 70 73 76 82 88 90 88 84 84 88 89 88 88 88 89 89 89 91 90 87 88 89 89 88 88 86 84 84
95 97 97 97 97 96 97 88 76 63 56 51 54 55 58 64 69 74 81 85 87 85 83 83 86 87 88 88 87 89 90 89 90 90 90 88 87 89 91 88 86 83 84
90 98 97 95 97 95 93 86 72 54 43 42 42 41 47 54 62 71 75 78 83 84 84 84 85 88 90 87 86 88 88 89 87 87 86 85 88 94 92 86 83 84 85
88 102 105 105 104 100 98 88 63 45 38 38 33 31 35 38 56 64 64 67 73 79 84 84 86 89 87 83 81 82 83 83 84 84 85 81 83 87 89 88 83 80 83
78 95 104 101 105 107 106 88 52 38 34 31 24 20 21 29 46 58 54 61 68 74 78 81 86 88 84 80 78 77 78 77 79 80 80 79 77 82 87 89 85 77 83
63 68 84 83 87 96 109 98 66 52 38 23 16 10 9 12 21 44 48 55 58 61 66 72 81 84 79 79 74 71 72 76 73 74 77 77 80 86 89 92 84 81 88
55 58 67 70 84 107 131 132 94 73 42 16 9 7 5 5 17 37 40 42 43 43 46 55 64 72 81 79 72 67 64 68 70 72 77 77 84 92 90 92 89 91 96
39 50 65 76 82 133 176 162 142 130 348 350 2 10 9 1 23 26 22 29 32 35 33 40 48 61 71 78 69 61 62 66 71 73 86 92 96 96 96 93 96 97 103
21 31 55 81 89 108 150 179 168 199 262 339 358 6 10 15 15 16 18 13 22 29 32 44 51 55 65 77 70 60 59 67 68 77 86 90 98 105 108 100 98 103 109
21 24 33 46 73 94 168 154 167 211 262 325 343 358 6 5 4 7 11 11 19 25 31 41 40 47 63 75 71 60 60 67 67 73 81 82 93 107 111 108 105 107 109
16 13 19 33 41 19 191 181 205 225 238 292 332 349 3 6 2 4 3 5 18 24 30 34 33 45 66 73 72 67 69 79 88 77 80 82 91 105 116 115 114 115 114
9 358 354 348 288 266 216 200 209 214 220 243 302 329 342 357 4 6 1 7 10 10 19 27 33 50 70 71 69 73 73 66 90 87 81 85 96 106 117 118 118 122 121
359 354 348 334 287 254 224 221 219 219 220 232 250 294 313 327 2 16 351 355 355 353 6 15 23 54 68 63 59 57 50 63 78 88 86 94 104 116 122 121 124 126 125
340 341 335 312 254 235 227 226 223 220 217 226 239 259 288 312 331 357 345 355 353 350 355 360 11 32 47 43 32 34 26 43 70 84 88 105 113 123 127 125 128 131 132
328 317 314 311 300 246 236 225 220 218 216 220 220 231 279 292 288 274 293 327 336 336 342 351 358 7 19 13 7 19 29 37 42 62 94 115 122 129 137 135 138 142 144
332 313 308 305 284 266 242 226 218 218 219 219 222 226 252 255 245 258 261 302 331 313 312 323 337 340 338 343 4 20 26 28 52 65 85 113 130 140 142 146 147 155 159
322 306 299 292 275 264 253 238 230 223 225 228 229 229 240 240 233 237 247 281 316 319 302 311 317 318 320 321 291 290 20 41 33 56 73 107 132 145 149 149 153 161 169
314 307 302 283 276 270 258 239 233 230 227 225 230 234 239 241 235 231 235 257 281 297 288 284 297 298 295 292 273 245 259 281 353 87 100 140 157 162 164 163 172 184 191
298 290 291 291 288 284 270 245 235 231 228 229 235 239 242 240 233 228 232 244 254 268 267 262 267 273 276 271 267 252 244 256 264 260 245 223 210 208 215 215 207 214 219
293 279 273 277 289 292 278 256 243 234 229 232 237 239 241 238 232 233 236 241 242 250 252 247 255 259 263 258 257 251 248 249 255 255 253 239 228 231 237 242 239 239 240
287 271 269 275 282 282 272 259 246 235 233 236 237 242 246 242 237 237 239 243 240 241 245 244 249 250 250 249 248 248 251 256 260 262 260 249 243 247 254 255 253 252 248
290 265 268 274 281 276 271 256 246 236 234 236 239 244 246 245 240 237 238 244 241 239 239 241 248 252 249 250 248 248 253 259 264 262 260 254 255 256 258 258 256 256 252
286 281 269 265 269 275 273 259 246 240 240 242 241 247 249 247 246 246 241 242 241 238 239 243 247 250 248 248 250 251 255 258 261 262 265 261 257 260 262 264 263 260 256
278 277 268 264 263 266 269 262 247 241 243 249 247 248 250 249 245 246 246 247 244 240 241 245 248 249 249 250 252 253 254 256 258 264 266 263 258 261 264 264 266 266 263
272 269 269 264 259 260 263 260 253 248 249 254 253 245 247 251 251 248 247 251 249 244 242 245 246 247 250 253 254 255 257 257 256 259 262 262 260 262 262 263 264 267 265
286 275 268 270 262 261 263 261 256 251 253 256 257 250 251 256 256 251 251 251 248 246 247 245 246 250 252 254 255 257 258 257 256 258 259 259 261 262 264 265 267 269 269